Flag for Norfolk Island Weather past 2 weeks in Kingston, Norfolk Island

Now
59 °F

Passing clouds.


Feels Like: 58 °F
Forecast: 58 / 64 °F
Wind: 8 mph from Southwest

Location: Norfolk Island Airport

Current Time: Jul 30, 2014 at 3:03:55 AM

Latest Report: Jul 30, 2014 at 2:30 AM


Visibility: N/A

Pressure: 30.15 "Hg

Humidity: 82%

Dew point: 54 °F

Location of KingstonLocation

Historic Weather in Kingston — Graph

°F

Kingston temperature yesterday

Maximum temperature yesterday: 66 °F (at 12:30 PM)
Minimum temperature yesterday: 55 °F (at 5:30 AM)
Average temperature yesterday: 60 °F

Past Weeks' High & Low Weather Summary

 TemperatureHumidityPressure
High66 °F (Jul 18, 12:00 PM)100% (Jul 29, 9:30 PM)30.42 "Hg (Jul 29, 9:30 PM)
Low54 °F (Jul 17, 4:30 AM)45% (Jul 16, 10:30 AM)29.47 "Hg (Jul 19, 3:30 AM)
Average59 °F68%30.03 "Hg
* Reported Jul 15 1:30 AM — Jul 30 1:30 AM, Kingston, Weather by CustomWeather, © 2014

Note: Actual official high and low records may vary slightly from our data, if they occured in-between our weather recording intervals... More about our weather records

Advertising

Kingston weather history for previous 24 hours

 ConditionsComfort  
Time TempWeatherWind HumidityBarometerVisibility
1:30 AM
Jul 30
59 °FOvercast.7 mph88%30.18 "HgN/A
1:00 AM61 °FMostly cloudy.8 mph83%30.18 "HgN/A
12:30 AM61 °FMostly cloudy.8 mph83%30.18 "HgN/A
12:00 AM59 °FOvercast.6 mph88%30.18 "HgN/A
11:30 PM
Jul 29
57 °FPassing clouds.6 mph94%30.18 "HgN/A
11:00 PM57 °FPassing clouds.5 mph94%30.18 "HgN/A
10:30 PM59 °FPassing clouds.5 mph94%30.18 "HgN/A
10:00 PM57 °FPassing clouds.5 mph94%30.18 "Hg5 mi
9:30 PM57 °FPassing clouds.No wind100%30.18 "HgN/A
9:00 PM57 °FClear.3 mph94%30.18 "Hg10 mi
8:30 PM59 °FClear.No wind94%30.18 "Hg10 mi
8:00 PM59 °FClear.No wind94%30.15 "Hg10 mi
7:30 PM59 °FClear.No wind94%30.15 "Hg10 mi
7:00 PM59 °FPassing clouds.No wind94%30.15 "HgN/A
6:30 PM59 °FPassing clouds.No wind94%30.15 "HgN/A
6:00 PM61 °FScattered showers. Passing clouds.6 mph88%30.15 "HgN/A
5:30 PM63 °FSprinkles. Passing clouds.6 mph83%30.15 "HgN/A
5:00 PM64 °FSprinkles. Broken clouds.7 mph78%30.12 "HgN/A
4:30 PM63 °FSprinkles. Broken clouds.6 mph83%30.12 "HgN/A
3:30 PM64 °FPartly sunny.7 mph68%30.12 "HgN/A
3:00 PM64 °FScattered showers. Scattered clouds.8 mph68%30.12 "HgN/A
2:30 PM64 °FPassing clouds.9 mph68%30.12 "HgN/A
2:00 PM64 °FPartly sunny.9 mph68%30.12 "HgN/A
1:30 PM64 °FScattered clouds.9 mph64%30.12 "HgN/A
1:00 PM64 °FScattered clouds.8 mph68%30.15 "HgN/A
12:30 PM66 °FScattered clouds.7 mph64%30.15 "HgN/A
12:00 PM64 °FScattered clouds.6 mph64%30.15 "HgN/A
11:30 AM64 °FPassing clouds.7 mph73%30.18 "HgN/A
11:00 AM64 °FPassing clouds.9 mph68%30.18 "HgN/A
10:30 AM64 °FPassing clouds.6 mph68%30.18 "HgN/A
10:00 AM64 °FPassing clouds.6 mph78%30.18 "HgN/A
9:30 AM63 °FPassing clouds.5 mph83%30.18 "HgN/A
8:00 AM57 °FPassing clouds.No wind94%30.15 "HgN/A
7:30 AM55 °FPassing clouds.No wind94%30.15 "HgN/A
7:00 AM55 °FSunny.No wind94%30.15 "HgN/A
6:30 AM55 °FClear.3 mph94%30.12 "HgN/A
6:00 AM55 °FClear.5 mph94%30.12 "HgN/A
5:30 AM55 °FPassing clouds.3 mph88%30.12 "HgN/A
5:00 AM57 °FPassing clouds.3 mph88%30.12 "HgN/A
4:30 AM57 °FPassing clouds.5 mph88%30.12 "HgN/A
4:00 AM57 °FOvercast.3 mph88%30.12 "HgN/A
3:30 AM57 °FClear.5 mph88%30.12 "HgN/A
3:00 AM59 °FClear.5 mph82%30.12 "HgN/A
Weather by CustomWeather, © 2014

See weather overviewHow to use our weather pages